GIA009 WIII-WAHI

Flight info

Callsign GIA009
Flight time 0h 46m
Altitude 31000
Route PW W17 CLP
Aircraft B738/M-SDE2E3FGHIRWXY/LB1

Departure

Time 2026-04-30 10:45
Airport Soekarno-Hatta International Airport (WIII)

Arrival

Time 2026-04-30 11:31
Airport Yogyakarta International Airport (WAHI)
Time Latitude Longitude Altitude Speed Heading
2026-04-30 10:15 -6.11768 106.66454 37 ft 0 kts 133°
2026-04-30 10:34 -6.11767 106.66453 37 ft 2 kts 134°
2026-04-30 10:34 -6.11749 106.66436 35 ft 4 kts 142°
2026-04-30 10:34 -6.11727 106.66420 35 ft 4 kts 148°
2026-04-30 10:34 -6.11704 106.66406 34 ft 4 kts 150°
2026-04-30 10:35 -6.11682 106.66391 34 ft 4 kts 124°
2026-04-30 10:35 -6.11677 106.66380 36 ft 0 kts 69°
2026-04-30 10:37 -6.11675 106.66384 36 ft 3 kts 69°
2026-04-30 10:37 -6.11652 106.66443 36 ft 15 kts 69°
2026-04-30 10:37 -6.11604 106.66562 36 ft 22 kts 68°
2026-04-30 10:38 -6.11549 106.66703 37 ft 21 kts 68°
2026-04-30 10:38 -6.11502 106.66821 37 ft 19 kts 68°
2026-04-30 10:38 -6.11491 106.66848 37 ft 1 kts 68°
2026-04-30 10:38 -6.11472 106.66894 37 ft 10 kts 68°
2026-04-30 10:39 -6.11400 106.66940 37 ft 18 kts 353°
2026-04-30 10:39 -6.11259 106.66887 37 ft 26 kts 338°
2026-04-30 10:39 -6.11139 106.66796 38 ft 19 kts 266°
2026-04-30 10:39 -6.11195 106.66642 37 ft 28 kts 249°
2026-04-30 10:40 -6.11276 106.66438 38 ft 36 kts 249°
2026-04-30 10:40 -6.11380 106.66178 38 ft 43 kts 244°
2026-04-30 10:40 -6.11491 106.65902 37 ft 42 kts 248°
2026-04-30 10:40 -6.11580 106.65677 37 ft 27 kts 248°
2026-04-30 10:41 -6.11649 106.65505 37 ft 26 kts 248°
2026-04-30 10:41 -6.11714 106.65340 35 ft 25 kts 249°
2026-04-30 10:41 -6.11782 106.65171 38 ft 28 kts 249°
2026-04-30 10:41 -6.11858 106.64980 36 ft 32 kts 248°
2026-04-30 10:42 -6.11944 106.64765 38 ft 35 kts 249°
2026-04-30 10:42 -6.12038 106.64529 37 ft 38 kts 248°
2026-04-30 10:42 -6.12134 106.64287 37 ft 39 kts 248°
2026-04-30 10:42 -6.12215 106.64086 38 ft 19 kts 249°
2026-04-30 10:43 -6.12254 106.63948 39 ft 18 kts 279°
2026-04-30 10:43 -6.12179 106.63893 40 ft 15 kts
2026-04-30 10:43 -6.12106 106.63906 39 ft 7 kts 17°
2026-04-30 10:43 -6.12084 106.63929 40 ft 0 kts 60°
2026-04-30 10:44 -6.12080 106.63939 40 ft 13 kts 65°
2026-04-30 10:44 -6.11928 106.64316 38 ft 100 kts 68°
2026-04-30 10:44 -6.11568 106.65191 50 ft 170 kts 65°
2026-04-30 10:44 -6.11093 106.66424 483 ft 201 kts 65°
2026-04-30 10:45 -6.10439 106.67727 1143 ft 219 kts 55°
2026-04-30 10:45 -6.09335 106.68922 1536 ft 246 kts 45°
2026-04-30 10:45 -6.08104 106.70172 2187 ft 258 kts 46°
2026-04-30 10:45 -6.06854 106.71472 2898 ft 261 kts 47°
2026-04-30 10:46 -6.05591 106.72807 3786 ft 262 kts 48°
2026-04-30 10:46 -6.04345 106.74138 4477 ft 263 kts 48°
2026-04-30 10:46 -6.03090 106.75490 4822 ft 264 kts 48°
2026-04-30 10:46 -6.01842 106.76840 4871 ft 264 kts 48°
2026-04-30 10:47 -6.00597 106.78187 5284 ft 264 kts 48°
2026-04-30 10:47 -5.99309 106.79583 5797 ft 279 kts 48°
2026-04-30 10:47 -5.98238 106.81257 6284 ft 292 kts 71°
2026-04-30 10:47 -5.98011 106.83285 6760 ft 298 kts 96°
2026-04-30 10:48 -5.98529 106.85279 7221 ft 297 kts 107°
2026-04-30 10:48 -5.99204 106.87239 7704 ft 299 kts 108°
2026-04-30 10:48 -5.99909 106.89215 8183 ft 301 kts 108°
2026-04-30 10:48 -6.00607 106.91178 8680 ft 304 kts 108°
2026-04-30 10:49 -6.01327 106.93222 9168 ft 306 kts 108°
2026-04-30 10:49 -6.02031 106.95244 9680 ft 310 kts 108°
2026-04-30 10:49 -6.02752 106.97329 10163 ft 320 kts 108°
2026-04-30 10:49 -6.03493 106.99472 10639 ft 330 kts 109°
2026-04-30 10:50 -6.04607 107.01517 11098 ft 338 kts 125°
2026-04-30 10:50 -6.06048 107.03361 11573 ft 337 kts 127°
2026-04-30 10:50 -6.07539 107.05193 12054 ft 338 kts 128°
2026-04-30 10:50 -6.09030 107.07016 12542 ft 339 kts 128°
2026-04-30 10:51 -6.10540 107.08870 13039 ft 342 kts 127°
2026-04-30 10:51 -6.12015 107.10693 13537 ft 347 kts 127°
2026-04-30 10:51 -6.13578 107.12636 14023 ft 353 kts 127°
2026-04-30 10:51 -6.15120 107.14563 14473 ft 359 kts 127°
2026-04-30 10:52 -6.16706 107.16551 14939 ft 364 kts 127°
2026-04-30 10:52 -6.18273 107.18518 15410 ft 369 kts 127°
2026-04-30 10:52 -6.19881 107.20541 15877 ft 372 kts 127°
2026-04-30 10:52 -6.21490 107.22563 16466 ft 371 kts 127°
2026-04-30 10:53 -6.23104 107.24595 17071 ft 370 kts 127°
2026-04-30 10:53 -6.24714 107.26621 17697 ft 370 kts 127°
2026-04-30 10:53 -6.26331 107.28658 18302 ft 370 kts 127°
2026-04-30 10:53 -6.27915 107.30653 18850 ft 369 kts 127°
2026-04-30 10:54 -6.29532 107.32690 19411 ft 368 kts 127°
2026-04-30 10:54 -6.31115 107.34684 19976 ft 367 kts 127°
2026-04-30 10:54 -6.32722 107.36710 20554 ft 366 kts 127°
2026-04-30 10:54 -6.34269 107.38659 21132 ft 365 kts 127°
2026-04-30 10:55 -6.35830 107.40626 21725 ft 363 kts 127°
2026-04-30 10:55 -6.37420 107.42630 22350 ft 361 kts 127°
2026-04-30 10:55 -6.39015 107.44640 22980 ft 359 kts 127°
2026-04-30 10:55 -6.40555 107.46583 23583 ft 356 kts 128°
2026-04-30 10:56 -6.42108 107.48541 24118 ft 353 kts 127°
2026-04-30 10:56 -6.43579 107.50396 24647 ft 350 kts 128°
2026-04-30 10:56 -6.45128 107.52349 25205 ft 347 kts 127°
2026-04-30 10:56 -6.46628 107.54241 25763 ft 343 kts 127°
2026-04-30 10:57 -6.48113 107.56114 26253 ft 343 kts 127°
2026-04-30 10:57 -6.49615 107.58012 26313 ft 357 kts 128°
2026-04-30 10:57 -6.51197 107.60009 26407 ft 368 kts 128°
2026-04-30 10:57 -6.52820 107.62058 26489 ft 380 kts 128°
2026-04-30 10:58 -6.54494 107.64172 26575 ft 391 kts 128°
2026-04-30 10:58 -6.56209 107.66337 26651 ft 402 kts 128°
2026-04-30 10:58 -6.57978 107.68570 26722 ft 412 kts 128°
2026-04-30 10:58 -6.59783 107.70849 26790 ft 421 kts 128°
2026-04-30 10:59 -6.61599 107.73141 27108 ft 422 kts 128°
2026-04-30 10:59 -6.63412 107.75429 27688 ft 417 kts 128°
2026-04-30 10:59 -6.65209 107.77699 28237 ft 412 kts 127°
2026-04-30 10:59 -6.67002 107.79962 28809 ft 408 kts 128°
2026-04-30 11:00 -6.68745 107.82162 29384 ft 403 kts 127°
2026-04-30 11:00 -6.70479 107.84353 29976 ft 398 kts 128°
2026-04-30 11:00 -6.72199 107.86526 30483 ft 393 kts 127°
2026-04-30 11:00 -6.73895 107.88669 30901 ft 392 kts 127°
2026-04-30 11:01 -6.77348 107.93038 30934 ft 407 kts 127°
2026-04-30 11:01 -6.80920 107.97557 30956 ft 420 kts 127°
2026-04-30 11:02 -6.84626 108.02244 30954 ft 434 kts 127°
2026-04-30 11:02 -6.88443 108.07073 30952 ft 445 kts 128°
2026-04-30 11:03 -6.92341 108.12005 30949 ft 453 kts 128°
2026-04-30 11:04 -6.98252 108.19487 30937 ft 452 kts 128°
2026-04-30 11:04 -7.02159 108.24434 30938 ft 452 kts 128°
2026-04-30 11:05 -7.04781 108.27755 30942 ft 453 kts 128°
2026-04-30 11:05 -7.09994 108.34361 30943 ft 454 kts 128°
2026-04-30 11:06 -7.13264 108.38505 30936 ft 454 kts 128°
2026-04-30 11:06 -7.17840 108.44308 30932 ft 454 kts 128°
2026-04-30 11:07 -7.21109 108.48455 30936 ft 454 kts 128°
2026-04-30 11:07 -7.25039 108.53440 30925 ft 454 kts 128°
2026-04-30 11:08 -7.28963 108.58420 30919 ft 454 kts 128°
2026-04-30 11:08 -7.32891 108.63407 30916 ft 454 kts 128°
2026-04-30 11:09 -7.36816 108.68392 30919 ft 453 kts 128°
2026-04-30 11:09 -7.40731 108.73365 30917 ft 452 kts 128°
2026-04-30 11:10 -7.44615 108.78300 30910 ft 452 kts 128°
2026-04-30 11:10 -7.48524 108.83270 30911 ft 452 kts 128°
2026-04-30 11:11 -7.52406 108.88207 30913 ft 451 kts 128°
2026-04-30 11:11 -7.56329 108.93198 30909 ft 451 kts 128°
2026-04-30 11:12 -7.60226 108.98157 30908 ft 451 kts 128°
2026-04-30 11:12 -7.63939 109.03231 30885 ft 450 kts 115°
2026-04-30 11:12 -7.64947 109.06203 30899 ft 449 kts 99°
2026-04-30 11:13 -7.65378 109.09322 30914 ft 449 kts 97°
2026-04-30 11:13 -7.66073 109.15552 30841 ft 444 kts 96°
2026-04-30 11:13 -7.66418 109.18645 30403 ft 439 kts 96°
2026-04-30 11:14 -7.66773 109.21710 29722 ft 442 kts 97°
2026-04-30 11:14 -7.67143 109.24801 28825 ft 446 kts 97°
2026-04-30 11:14 -7.67529 109.27925 27889 ft 451 kts 98°
2026-04-30 11:14 -7.68251 109.30984 26887 ft 450 kts 110°
2026-04-30 11:15 -7.69586 109.33841 25709 ft 453 kts 121°
2026-04-30 11:15 -7.71415 109.36425 24655 ft 452 kts 131°
2026-04-30 11:15 -7.73550 109.38731 23813 ft 445 kts 133°
2026-04-30 11:15 -7.75635 109.40942 22933 ft 439 kts 133°
2026-04-30 11:16 -7.77722 109.43161 22149 ft 430 kts 133°
2026-04-30 11:16 -7.79734 109.45316 21701 ft 414 kts 132°
2026-04-30 11:16 -7.81663 109.47398 21316 ft 399 kts 132°
2026-04-30 11:16 -7.83528 109.49419 20888 ft 387 kts 132°
2026-04-30 11:17 -7.85333 109.51381 20478 ft 377 kts 132°
2026-04-30 11:17 -7.87084 109.53287 20086 ft 366 kts 131°
2026-04-30 11:17 -7.88802 109.55159 19715 ft 362 kts 131°
2026-04-30 11:17 -7.90507 109.57016 19335 ft 360 kts 131°
2026-04-30 11:18 -7.92198 109.58860 18944 ft 359 kts 131°
2026-04-30 11:18 -7.95591 109.62557 18167 ft 356 kts 131°
2026-04-30 11:18 -7.97249 109.64364 17720 ft 356 kts 131°
2026-04-30 11:19 -7.98932 109.66198 17306 ft 353 kts 131°
2026-04-30 11:19 -8.00594 109.68009 16909 ft 350 kts 131°
2026-04-30 11:19 -8.02234 109.69797 16627 ft 345 kts 131°
2026-04-30 11:19 -8.03860 109.71570 16212 ft 342 kts 132°
2026-04-30 11:20 -8.05481 109.73338 15574 ft 341 kts 132°
2026-04-30 11:20 -8.07083 109.75085 14948 ft 339 kts 132°
2026-04-30 11:20 -8.08673 109.76820 14402 ft 335 kts 132°
2026-04-30 11:20 -8.10248 109.78539 13905 ft 330 kts 132°
2026-04-30 11:21 -8.11794 109.80226 13407 ft 325 kts 132°
2026-04-30 11:21 -8.13324 109.81895 12830 ft 322 kts 132°
2026-04-30 11:21 -8.14841 109.83550 12234 ft 320 kts 132°
2026-04-30 11:21 -8.16345 109.85190 11676 ft 318 kts 132°
2026-04-30 11:22 -8.17649 109.86969 11075 ft 315 kts 114°
2026-04-30 11:22 -8.18293 109.89061 10540 ft 311 kts 102°
2026-04-30 11:22 -8.18743 109.91182 9989 ft 309 kts 100°
2026-04-30 11:22 -8.18732 109.93328 9358 ft 308 kts 76°
2026-04-30 11:23 -8.17868 109.95260 8750 ft 306 kts 54°
2026-04-30 11:23 -8.16329 109.96718 8267 ft 303 kts 31°
2026-04-30 11:23 -8.12476 109.97537 8021 ft 272 kts 354°
2026-04-30 11:24 -8.10672 109.97238 8025 ft 256 kts 351°
2026-04-30 11:24 -8.08945 109.96902 8013 ft 250 kts 351°
2026-04-30 11:24 -8.07229 109.96564 7806 ft 256 kts 350°
2026-04-30 11:25 -8.03648 109.95873 6738 ft 261 kts 351°
2026-04-30 11:25 -8.01879 109.95536 6221 ft 259 kts 351°
2026-04-30 11:25 -7.98405 109.94882 5191 ft 249 kts 351°
2026-04-30 11:26 -7.95031 109.94251 4130 ft 243 kts 351°
2026-04-30 11:26 -7.93372 109.93942 3494 ft 244 kts 351°
2026-04-30 11:26 -7.91718 109.93634 2868 ft 245 kts 351°
2026-04-30 11:27 -7.90020 109.93318 2299 ft 243 kts 351°
2026-04-30 11:27 -7.88389 109.93047 1801 ft 238 kts 359°
2026-04-30 11:27 -7.86893 109.93503 1404 ft 221 kts 45°
2026-04-30 11:27 -7.86287 109.94739 1464 ft 190 kts 92°
2026-04-30 11:28 -7.87229 109.97196 1503 ft 181 kts 112°
2026-04-30 11:28 -7.87693 109.98307 1348 ft 160 kts 112°
2026-04-30 11:28 -7.88110 109.99326 1075 ft 151 kts 111°
2026-04-30 11:29 -7.88519 110.00287 974 ft 153 kts 113°
2026-04-30 11:29 -7.88897 110.01218 914 ft 139 kts 109°
2026-04-30 11:29 -7.89556 110.03000 407 ft 135 kts 105°
2026-04-30 11:30 -7.90163 110.04709 35 ft 120 kts 109°
2026-04-30 11:30 -7.90419 110.05411 35 ft 88 kts 110°
2026-04-30 11:30 -7.90586 110.05868 42 ft 53 kts 110°
2026-04-30 11:31 -7.90659 110.06109 38 ft 30 kts 98°
2026-04-30 11:31 -7.90662 110.06233 39 ft 8 kts 85°
2026-04-30 11:31 -7.90659 110.06256 36 ft 0 kts 81°
2026-04-30 11:32 -7.90658 110.06259 37 ft 2 kts 81°
2026-04-30 11:32 -7.90652 110.06289 39 ft 6 kts 73°
2026-04-30 11:33 -7.90629 110.06407 38 ft 7 kts 87°
2026-04-30 11:33 -7.90605 110.06463 35 ft 12 kts 37°
2026-04-30 11:33 -7.90528 110.06497 32 ft 13 kts 21°
2026-04-30 11:33 -7.90463 110.06494 34 ft 10 kts 319°
2026-04-30 11:34 -7.90430 110.06434 34 ft 10 kts 290°
2026-04-30 11:34 -7.90412 110.06385 31 ft 6 kts 291°
2026-04-30 11:34 -7.90395 110.06343 34 ft 6 kts 291°
2026-04-30 11:34 -7.90380 110.06304 32 ft 5 kts 291°
2026-04-30 11:35 -7.90368 110.06275 33 ft 3 kts 291°
2026-04-30 11:35 -7.90362 110.06259 33 ft 0 kts 291°
2026-04-30 11:35 -7.90361 110.06255 33 ft 1 kts 291°
2026-04-30 11:35 -7.90356 110.06242 33 ft 3 kts 288°
2026-04-30 11:36 -7.90344 110.06207 33 ft 8 kts 290°
2026-04-30 11:36 -7.90321 110.06144 34 ft 10 kts 291°
2026-04-30 11:36 -7.90298 110.06083 34 ft 11 kts 290°
2026-04-30 11:36 -7.90278 110.06029 34 ft 6 kts 291°
2026-04-30 11:37 -7.90274 110.06019 34 ft 1 kts 291°
2026-04-30 11:37 -7.90269 110.06005 34 ft 3 kts 290°
2026-04-30 11:37 -7.90253 110.05989 34 ft 4 kts 346°
2026-04-30 11:37 -7.90217 110.06003 34 ft 6 kts 25°
2026-04-30 11:38 -7.90202 110.06009 33 ft 1 kts 21°
2026-04-30 11:38 -7.90197 110.06011 34 ft 1 kts 21°
2026-04-30 11:38 -7.90189 110.06014 32 ft 2 kts 20°
2026-04-30 11:38 -7.90176 110.06019 33 ft 1 kts 20°
2026-04-30 11:39 -7.90168 110.06022 33 ft 0 kts 20°